Location: Roanoke
(37.2710°N, 79.9420°W)
Time: 07:36:10
(UTC-04:00)

Cosmos 1441 Rocket - Visible Passes

Search period start: 26 May 2015 00:00
Search period end: 05 June 2015 00:00
Orbit: 503 x 550 km, 81.1° (Epoch: 25 May)

Date Brightness Start Highest point End Pass type
(mag) Time Alt. Az. Time Alt. Az. Time Alt. Az.
28 May 6.1 05:27:26 10° SE 05:29:57 17° E 05:32:37 10° NE visible
29 May 6.1 05:16:00 10° SE 05:18:19 16° E 05:20:48 10° NE visible
30 May 6.1 05:04:34 10° ESE 05:06:40 15° E 05:08:57 10° NE visible
31 May 6.2 04:53:11 10° ESE 04:55:02 13° E 04:57:05 10° ENE visible
01 Jun 6.2 04:41:51 10° ESE 04:43:24 12° E 04:45:08 10° ENE visible
02 Jun 6.3 04:30:37 10° ESE 04:31:44 11° E 04:33:06 10° ENE visible
03 Jun 6.4 04:19:39 10° E 04:20:06 10° E 04:20:49 10° ENE visible
